Location: ?????
(44.4284°N, 135.2222°E)
Time: 05:38:14
(UTC+00:00)

Cosmos 2322 Rocket - Pass Details

Date: 19 May 2025
Orbit: 832 x 850 km, 71.0° (Epoch: 15 June)

Event Time Altitude Azimuth Distance (km) Brightness Sun altitude
Rises 14:22:00 0° 337° (NNW) 3,414 6.6 -25.2°
Reaches altitude 10° 14:24:32 10° 343° (NNW) 2,472 5.6 -25.3°
Maximum altitude 14:30:05 53° 60° (ENE) 1,022 2.7 -25.4°
Enters shadow 14:31:27 43° 105° (ESE) 1,165 2.7 -25.4°
